Regional Weather Roundup
Issued by NWS Lake Charles, LA

Home | Current Version | Previous Version | Text Only | Print | Product List | Glossary On
Versions: 1 2 3 4 5 6 7 8 9 10 11 12 13 14 15 16 17 18 19 20 21 22 23 24 25 26 27 28 29 30 31 32 33 34 35 36 37 38 39 40 41 42 43 44 45 46 47 48 49 50
000
ASUS44 KLCH 281210
RWRLCH
RWRLCH
REGIONAL WEATHER ROUNDUP
NATIONAL WEATHER SERVICE LAKE CHARLES LA
600 AM CST WED JAN 28 2015

Note: "fair" indicates few or no clouds below 12,000 feet with no
significant weather and/or obstructions to visibility.


ACROSS SOUTHEAST TEXAS

CITY           SKY/WX    TMP DP  RH WIND       PRES   REMARKS
BEAUMONT       CLEAR     45  43  93 CALM      30.17R
BEAUMONT CITY    N/A     43  42  97 CALM      30.18R
ORANGE         SUNNY     41  41  99 CALM      30.20R
JASPER         CLEAR     39  39  99 CALM      30.20R
$$

ACROSS CENTRAL LOUISIANA

CITY           SKY/WX    TMP DP  RH WIND       PRES   REMARKS
LEESVILLE      CLEAR     41  40  93 E2        30.18R
FULLERTON        N/A     41  37  86 CALM      30.17R
ALEXANDRIA INT CLEAR     40  38  93 CALM      30.19R
ESLER FIELD    CLEAR     37  34  89 CALM      30.21R
DERIDDER         N/A     41  40  95 CALM      30.20R
OAKDALE        SUNNY     35  34  95 CALM      30.21R
OPELOUSAS        N/A     41  38  91 CALM      30.21R
$$

ACROSS SOUTHWEST AND SOUTH CENTRAL LOUISIANA

CITY           SKY/WX    TMP DP  RH WIND       PRES   REMARKS
SULPHUR        SUNNY     43  43 100 CALM      30.19R
LAKE CHARLES   CLEAR     43  41  93 CALM      30.19R FOG
CHENNAULT INT  CLEAR     43  41  93 CALM      30.20
CAMERON PHI      N/A     50  48  93 E7        30.22R
DEQUINCY         N/A     39  39 100 CALM      30.19R
JENNINGS         N/A     46  44  93 E3        30.20R
LAFAYETTE      CLEAR     50  37  61 CALM      30.21R
NEW IBERIA     CLEAR     47  37  68 E5        30.21R
ABBEVILLE        N/A     41  41  99 CALM      30.21R
PATTERSON      CLEAR     46  37  71 E5        30.22R
SALT POINT       N/A     48  41  76 E3        30.20R
$$

SELECTED SITES ACROSS THE REGION

CITY           SKY/WX    TMP DP  RH WIND       PRES   REMARKS
HOUSTON BUSH   PTCLDY    46  45  96 CALM      30.15S
HOUSTON HOBBY  CLEAR     49  46  90 CALM      30.15S
GALVESTON      CLEAR     50  49  96 N3        30.17S
COLLEGE STAT   CLEAR     48  42  80 E3        30.14R
CONROE         CLEAR     40  38  93 CALM      30.16S
HUNTSVILLE     CLEAR     53  45  74 S5        30.14S
LUFKIN         CLEAR     47  41  80 CALM      30.16R
SHREVEPORT     CLEAR     43  38  82 CALM      30.16R
MONROE         CLEAR     41  36  82 CALM      30.23R
NATCHEZ MS     CLEAR     46  34  61 SE7       30.22R
BATON ROUGE    CLEAR     42  35  76 E6        30.22R
N.O. INTL ARPT CLEAR     50  38  63 E6        30.23R
SLIDELL        CLEAR     40  35  83 NE3       30.23R
$$

MARINE REPORTS

STATION/POSITION TIME  TEMP    WIND        PRES    VSBY  WAVE
                       AIR SEA DIR/SP/G                  HT/PER
                 (UTC) (F)     (DEG/KT/KT) (MB)    (MI)  (FT/S)
BUOY 30 S HIGH I 1200   56 56  160/  4/  4 1021.5R         1/ 5
SEA RIM ST PARK  1200   52     100/  5/  5 1022.5R
PORT ARTHUR      1200      53  100/  1/  3 1021.8S
SABINE PASS N    1200   52 53  110/  4/  4 1021.8R
TEXAS POINT      NOT AVBL
CALCASIEU PASS   1200   53 54  100/  7/  8   N/A
LK CHARLES BEACH 1200   47 52              1022.4R
MARSH ISLAND     1100   59     110/  9/ 10   N/A
FRESH WATER LOCK 1200   52 57   80/  5/  5 1022.5R
AMERADA PASS     1200   51 46   90/  6/  7 1022.7R
$$



USA.gov is the U.S. government's official web portal to all federal, state and local government web resources and services.